OYYYYY ESGT-ESGG

Flight info

Callsign OYYYYY
Flight time N/A
Altitude 1500
Route
Aircraft BE9L

Departure

Time N/A
Airport Trollhättan-Vänersborg Airport (ESGT)

Arrival

Time 2026-05-04 18:39
Airport Göteborg Landvetter Airport (ESGG)
Time Latitude Longitude Altitude Speed Heading
2026-05-04 18:32 57.63843 12.10019 3110 ft 148 kts 281°
2026-05-04 18:32 57.63927 12.08037 2949 ft 154 kts 270°
2026-05-04 18:32 57.63676 12.06150 2579 ft 151 kts 253°
2026-05-04 18:33 57.63388 12.04308 2094 ft 149 kts 277°
2026-05-04 18:33 57.64238 12.03539 1791 ft 170 kts 11°
2026-05-04 18:33 57.65270 12.04594 1484 ft 171 kts 30°
2026-05-04 18:33 57.66214 12.05812 1287 ft 154 kts 11°
2026-05-04 18:34 57.67125 12.05598 1292 ft 125 kts 316°
2026-05-04 18:34 57.67213 12.04366 1516 ft 114 kts 222°
2026-05-04 18:34 57.66468 12.04865 1565 ft 143 kts 111°
2026-05-04 18:34 57.66888 12.06171 1561 ft 139 kts 357°
2026-05-04 18:35 57.67775 12.07266 1338 ft 172 kts 59°
2026-05-04 18:35 57.68278 12.09268 1186 ft 170 kts 62°
2026-05-04 18:35 57.68780 12.11317 1180 ft 174 kts 65°
2026-05-04 18:35 57.69193 12.13327 1138 ft 163 kts 80°
2026-05-04 18:36 57.69255 12.15418 1124 ft 157 kts 89°
2026-05-04 18:36 57.69257 12.17448 1099 ft 161 kts 92°
2026-05-04 18:36 57.69174 12.19585 1082 ft 161 kts 94°
2026-05-04 18:36 57.69212 12.21703 1076 ft 165 kts 84°
2026-05-04 18:37 57.69351 12.23671 1069 ft 137 kts 76°
2026-05-04 18:37 57.69550 12.25211 942 ft 115 kts 87°
2026-05-04 18:37 57.69579 12.26758 909 ft 125 kts 91°
2026-05-04 18:37 57.69537 12.28336 816 ft 119 kts 99°
2026-05-04 18:38 57.69391 12.29752 792 ft 110 kts 117°
2026-05-04 18:38 57.68907 12.30299 837 ft 90 kts 204°
2026-05-04 18:38 57.68331 12.29852 690 ft 84 kts 214°
2026-05-04 18:38 57.67831 12.29392 573 ft 83 kts 211°
2026-05-04 18:39 57.67297 12.28910 513 ft 85 kts 213°
2026-05-04 18:39 57.66782 12.28436 512 ft 80 kts 211°
2026-05-04 18:39 57.66365 12.28060 507 ft 54 kts 199°
2026-05-04 18:39 57.66082 12.27794 506 ft 40 kts 209°
2026-05-04 18:40 57.65902 12.27676 505 ft 14 kts 189°
2026-05-04 18:40 57.65774 12.27667 505 ft 10 kts 176°
2026-05-04 18:40 57.65727 12.27694 505 ft 2 kts 134°
2026-05-04 18:40 57.65727 12.27815 506 ft 18 kts 40°
2026-05-04 18:41 57.65878 12.27955 507 ft 30 kts 26°
2026-05-04 18:41 57.66099 12.28147 507 ft 40 kts 19°
2026-05-04 18:41 57.66369 12.28408 508 ft 42 kts 23°
2026-05-04 18:41 57.66603 12.28618 509 ft 32 kts 26°
2026-05-04 18:42 57.66776 12.28780 510 ft 24 kts 22°
2026-05-04 18:42 57.66904 12.28897 510 ft 17 kts 25°
2026-05-04 18:42 57.66996 12.28973 510 ft 11 kts 22°
2026-05-04 18:42 57.67056 12.29021 510 ft 6 kts 28°
2026-05-04 18:43 57.67086 12.29053 510 ft 3 kts 27°
2026-05-04 18:43 57.67115 12.29081 510 ft 11 kts 27°
2026-05-04 18:43 57.67237 12.29198 511 ft 27 kts 25°
2026-05-04 18:43 57.67380 12.29316 511 ft 22 kts 13°
2026-05-04 18:44 57.67376 12.29602 512 ft 33 kts 122°
2026-05-04 18:44 57.67377 12.29773 512 ft 22 kts 18°
2026-05-04 18:44 57.67424 12.29928 513 ft 0 kts 115°